Location: Lassen National Park
(40.5158°N, 121.4639°W)
Time: 07:46:35
(UTC-07:00)

OTV 5 (USA 277) - Visible Passes

Search period start: 20 October 2019 00:00
Search period end: 30 October 2019 00:00
Orbit: 310 x 324 km, 54.5° (Epoch: 17 October)

Date Brightness Start Highest point End Pass type
(mag) Time Alt. Az. Time Alt. Az. Time Alt. Az.
20 Oct ? 05:39:38 46° ENE 05:39:38 46° ENE 05:41:59 10° ESE visible
21 Oct ? 05:54:26 39° S 05:54:26 39° S 05:56:29 10° SSE visible
22 Oct ? 06:09:21 13° SSW 06:09:21 13° SSW 06:10:03 10° S visible
26 Oct ? 20:14:42 10° SW 20:14:49 11° SW 20:14:49 11° SW visible
27 Oct ? 18:56:18 10° SSE 18:57:56 15° SE 18:58:38 14° ESE visible
27 Oct ? 20:29:29 10° WSW 20:29:33 10° WSW 20:29:33 10° WSW visible
28 Oct ? 19:09:41 10° SSW 19:12:17 42° SE 19:13:13 29° E visible
29 Oct ? 19:24:07 10° WSW 19:26:48 57° NW 19:27:41 35° NNE visible
